Overview Statistics Trail Chart Weather Telemetry Raw packets
 

This is the latest recevied weather packets stored in our database for station/object KI4NG. If no packets are shown the sender has not sent any weather packets the latest 10 day(s).

<< 48 49 50 51 52 53 54 >>
Time Temp. Humidity Pressure Rain* Wind** Luminosity Snow
1788294276 31.11° C 68% 1021.3 hPa 0 mm - 120 W/m² -
1788293972 31.11° C 65% 1021.3 hPa 0 mm - 129 W/m² -
1788293666 31.11° C 66% 1021.4 hPa 0 mm - 110 W/m² -
1788293360 31.67° C 65% 1021.4 hPa 0 mm - 115 W/m² -
1788293055 32.22° C 62% 1021.4 hPa 0 mm - 142 W/m² -
1788292754 31.67° C 63% 1021.4 hPa 0 mm - 429 W/m² -
1788292453 31.67° C 62% 1021.3 hPa 0 mm - 478 W/m² -
1788292148 31.67° C 63% 1021.4 hPa 0 mm - 148 W/m² -
1788291842 32.22° C 62% 1021.4 hPa 0 mm - 163 W/m² -
1788291541 33.89° C 58% 1021.3 hPa 0 mm - 645 W/m² -
1788291237 33.33° C 57% 1021.2 hPa 0 mm - 678 W/m² -
1788290932 33.33° C 55% 1021.7 hPa 0 mm - 645 W/m² -
1788290628 33.33° C 56% 1021.6 hPa 0 mm - 418 W/m² -
1788290324 33.33° C 55% 1021.8 hPa 0 mm - 631 W/m² -
1788290019 33.33° C 56% 1021.9 hPa 0 mm - 659 W/m² -
1788289715 33.33° C 59% 1021.8 hPa 0 mm - 660 W/m² -
1788289409 32.78° C 62% 1021.8 hPa 0 mm - 651 W/m² -
1788289107 32.78° C 61% 1021.8 hPa 0 mm - 658 W/m² -
1788288807 32.22° C 61% 1022 hPa 0 mm - 647 W/m² -
1788288504 32.78° C 62% 1021.8 hPa 0 mm - 634 W/m² -
1788288197 32.78° C 61% 1021.9 hPa 0 mm - 642 W/m² -
1788287893 32.78° C 62% 1021.9 hPa 0 mm - 682 W/m² -
1788287587 32.22° C 61% 1022.3 hPa 0 mm - 750 W/m² -
1788287284 31.67° C 63% 1022.1 hPa 0 mm - 608 W/m² -
1788286982 31.67° C 62% 1022.3 hPa 0 mm - 312 W/m² -

* Rain latest hour (hover to see other rain measurements)
** Current wind speed in m/s (hover to see current wind gust speed)